USA 164 (MILSTAR-2 3)

Last updated on Fri Oct 24 2025 00:02:47 GMT+0000 (Coordinated Universal Time)

1 27168U 02001A 25295.91016183 .00000107 00000+0 00000+0 0 9995 2 27168 10.8952 23.2819 0096484 2.3552 352.6123 1.00274047 30576
UTC large
Height (km)
Speed (km/s)
/
Latitude / Longitude
Inclination (degrees)
Orbital Period (minutes)
Azimuth
Elevation
Range (km)
Doppler Factor

Next 0 passes for location: London (51.5072 / 0.1276)

Sorry there are no passes over London.